Preview of NWS' New Version of Forecast
This preview is not operational and should not be used for support decisions.

Regional Weather Roundup (RWR)

Issued by National Weather Service (NWS)

                            
000
ASUS45 KCYS 211610
RWRWY 

WYOMING REGIONAL WEATHER ROUNDUP
NATIONAL WEATHER SERVICE CHEYENNE WY
1000 AM MDT SUN APR 21 2019

NOTE:  "FAIR" INDICATES FEW OR NO CLOUDS BELOW 12,000 FEET
WITH NO SIGNIFICANT WEATHER AND/OR OBSTRUCTIONS TO VISIBILITY.

WYZ001-211700-
...YELLOWSTONE NATIONAL PARK...
  
CITY           SKY/WX    TMP DP  RH WIND       PRES   REMARKS
LK YELLOWSTONE   N/A     36  34  92 CALM      29.99R                  
W YELLOWSTONE  NOT AVBL                                               

$$
WYZ002>013-054>058-071-098>099-211700-
...NORTHERN WYOMING...
  
CITY           SKY/WX    TMP DP  RH WIND       PRES   REMARKS
JACKSON        CLOUDY    40  36  86 N9        29.92S WCI  34          
CODY           LGT RAIN  40  36  86 N14G25    30.03R WCI  32          
GREYBULL       RAIN      45  41  86 NW17      29.94R FOG              
WORLAND        CLOUDY    49  40  71 NW14      29.95R                  
SHERIDAN       CLOUDY    44  41  89 N13       30.02R                  
BUFFALO        FOG       43  42  97 N22       29.98R VSB 1/4          
GILLETTE       LGT RAIN  44  44 100 N15       29.95R                  
HULETT         CLOUDY    46  43  87 NE8G16    29.94R                  
NEWCASTLE      LGT RAIN  50  43  76 SE6       29.89R                  

$$
WYZ014>020-022>026-101>103-211700-
...CENTRAL WYOMING...
  
CITY           SKY/WX    TMP DP  RH WIND       PRES   REMARKS
BIG PINEY      CLOUDY    42  38  85 S9        29.92S                  
PINEDALE       CLOUDY    41  39  93 CALM      29.93S                  
DUBOIS         RAIN      37  36  93 SE12      29.94R WCI  30          
LANDER         LGT RAIN  45  41  86 NE5       29.93R                  
RIVERTON       LGT RAIN  45  41  86 NE9       29.93R                  
CASPER         CLOUDY    44  43  96 NE15      29.94R                  
DOUGLAS        CLOUDY    52  44  74 N10       29.91S                  

$$
WYZ021-027>030-104>119-211700-
...SOUTHERN WYOMING...
  
CITY           SKY/WX    TMP DP  RH WIND       PRES   REMARKS
EVANSTON       CLOUDY    45  36  70 VRB3      29.90S                  
KEMMERER       CLOUDY    43  37  81 SW3       29.93R                  
FORT BRIDGER   NOT AVBL                                               
ROCK SPRINGS   CLOUDY    47  34  60 S5        29.93R                  
DIXON          CLOUDY    49  33  54 S17       29.97R                  
RAWLINS        CLOUDY    52  32  46 VRB3      29.91S                  
SARATOGA       FAIR      55  30  38 N5        29.92S                  
LARAMIE        PTSUNNY   54  28  36 N7        29.90S                  
CHEYENNE       CLOUDY    56  36  47 NE15      29.87R                  
TORRINGTON     LGT RAIN  50  47  89 N10       29.86R                  
PINE BLUFFS    CLOUDY    55  39  54 NE7       29.86F                  

$$